• In Lithuania
  • List of Countries
  • For 7 days
  • Water Temperature
  • Satellite Maps
  • Weather Map
  • Weather Widgets
  • user-avatar
    Login

    Hourly Weather Surabaya

    Today, 15 October, Monday

    Time Temperature Precipitation Wind Pressure Humidity
    00:00 +29°C° 0.2 mm 1 mps 759 mmHg 67%
    01:00 +29°C° 0.2 mm 1 mps 758 mmHg 69%
    02:00 +29°C° 0 mm 1 mps 758 mmHg 70%
    03:00 +29°C° 0.1 mm 1 mps 758 mmHg 70%
    04:00 +28°C° 0.1 mm 1 mps 758 mmHg 71%
    05:00 +28°C° 0.1 mm 1 mps 758 mmHg 71%
    06:00 +29°C° 0 mm 1 mps 758 mmHg 66%
    07:00 +30°C° 0 mm 1 mps 759 mmHg 61%
    08:00 +31°C° 0 mm 1 mps 759 mmHg 56%
    09:00 +33°C° 0 mm 1 mps 759 mmHg 49%
    10:00 +35°C° 0 mm 1 mps 759 mmHg 42%
    11:00 +39°C° 0 mm 2 mps 758 mmHg 35%
    12:00 +39°C° 0 mm 2 mps 758 mmHg 33%
    13:00 +39°C° 0 mm 2 mps 757 mmHg 32%
    14:00 +40°C° 0 mm 2 mps 757 mmHg 32%
    15:00 +39°C° 0 mm 3 mps 757 mmHg 35%
    16:00 +38°C° 0 mm 3 mps 757 mmHg 38%
    17:00 +37°C° 0 mm 4 mps 757 mmHg 42%
    18:00 +35°C° 0.1 mm 4 mps 757 mmHg 49%
    19:00 +33°C° 0.1 mm 3 mps 757 mmHg 57%
    20:00 +31°C° 0.1 mm 3 mps 758 mmHg 64%
    21:00 +30°C° 0.1 mm 3 mps 758 mmHg 66%
    22:00 +30°C° 0.1 mm 2 mps 758 mmHg 67%
    23:00 +30°C° 0.1 mm 2 mps 759 mmHg 68%

    Tomorrow, 16 October, Tuesday

    Time Temperature Precipitation Wind Pressure Humidity
    00:00 +30°C° 0 mm 2 mps 759 mmHg 69%
    01:00 +30°C° 0 mm 2 mps 758 mmHg 69%
    02:00 +29°C° 0 mm 2 mps 758 mmHg 70%
    03:00 +29°C° 0 mm 2 mps 758 mmHg 71%
    04:00 +29°C° 0 mm 2 mps 758 mmHg 71%
    05:00 +28°C° 0 mm 2 mps 758 mmHg 71%
    06:00 +29°C° 0 mm 2 mps 758 mmHg 67%
    07:00 +30°C° 0 mm 1 mps 758 mmHg 62%
    08:00 +31°C° 0 mm 1 mps 758 mmHg 58%
    09:00 +33°C° 0 mm 1 mps 758 mmHg 50%
    10:00 +35°C° 0 mm 1 mps 758 mmHg 42%
    11:00 +38°C° 0 mm 2 mps 758 mmHg 34%
    12:00 +39°C° 0 mm 2 mps 757 mmHg 33%
    13:00 +39°C° 0 mm 2 mps 757 mmHg 31%
    14:00 +40°C° 0 mm 3 mps 756 mmHg 29%
    15:00 +39°C° 0 mm 3 mps 756 mmHg 32%
    16:00 +38°C° 0 mm 4 mps 755 mmHg 36%
    17:00 +37°C° 0 mm 4 mps 755 mmHg 40%
    18:00 +35°C° 0 mm 4 mps 756 mmHg 47%
    19:00 +34°C° 0 mm 3 mps 756 mmHg 55%
    20:00 +31°C° 0 mm 3 mps 756 mmHg 62%
    21:00 +31°C° 0.1 mm 2 mps 757 mmHg 63%
    22:00 +30°C° 0.1 mm 2 mps 757 mmHg 65%
    23:00 +30°C° 0.1 mm 2 mps 758 mmHg 66%

    Day after tomorrow, 17 October, Wednesday

    Time Temperature Precipitation Wind Pressure Humidity
    00:00 +30°C° 0 mm 2 mps 758 mmHg 67%
    01:00 +30°C° 0 mm 2 mps 757 mmHg 67%
    02:00 +29°C° 0 mm 2 mps 757 mmHg 68%
    03:00 +29°C° 0 mm 2 mps 757 mmHg 69%
    04:00 +29°C° 0 mm 2 mps 757 mmHg 70%
    05:00 +29°C° 0 mm 2 mps 757 mmHg 71%
    06:00 +29°C° 0 mm 1 mps 757 mmHg 67%
    07:00 +30°C° 0 mm 1 mps 758 mmHg 63%
    08:00 +31°C° 0 mm 1 mps 758 mmHg 59%
    09:00 +34°C° 0 mm 1 mps 758 mmHg 51%
    10:00 +36°C° 0 mm 1 mps 758 mmHg 43%
    11:00 +39°C° 0 mm 1 mps 758 mmHg 36%
    12:00 +39°C° 0 mm 1 mps 757 mmHg 34%
    13:00 +40°C° 0 mm 2 mps 756 mmHg 33%
    14:00 +40°C° 0 mm 2 mps 755 mmHg 31%
    15:00 +39°C° 0.1 mm 3 mps 755 mmHg 34%
    16:00 +38°C° 0.1 mm 3 mps 755 mmHg 37%
    17:00 +37°C° 0.1 mm 4 mps 754 mmHg 40%
    18:00 +36°C° 0 mm 3 mps 755 mmHg 47%
    19:00 +34°C° 0 mm 3 mps 756 mmHg 53%
    20:00 +31°C° 0 mm 3 mps 756 mmHg 60%
    21:00 +31°C° 0 mm 2 mps 757 mmHg 62%
    22:00 +31°C° 0 mm 2 mps 757 mmHg 64%
    23:00 +30°C° 0 mm 2 mps 758 mmHg 66%

    18 October, Thursday

    Time Temperature Precipitation Wind Pressure Humidity
    00:00 +30°C° 0 mm 2 mps 757 mmHg 68%
    01:00 +30°C° 0 mm 1 mps 757 mmHg 69%
    02:00 +29°C° 0 mm 1 mps 756 mmHg 70%
    03:00 +29°C° 0 mm 1 mps 756 mmHg 71%
    04:00 +29°C° 0 mm 1 mps 756 mmHg 72%
    05:00 +29°C° 0 mm 1 mps 756 mmHg 72%
    06:00 +30°C° 0 mm 1 mps 757 mmHg 68%
    07:00 +31°C° 0 mm 1 mps 757 mmHg 63%
    08:00 +32°C° 0 mm 1 mps 758 mmHg 59%
    09:00 +34°C° 0 mm 1 mps 758 mmHg 52%
    10:00 +36°C° 0 mm 1 mps 758 mmHg 44%
    11:00 +37°C° 0 mm 1 mps 758 mmHg 37%
    12:00 +39°C° 0.1 mm 1 mps 757 mmHg 37%
    13:00 +39°C° 0.1 mm 2 mps 756 mmHg 36%
    14:00 +40°C° 0.1 mm 2 mps 756 mmHg 35%
    15:00 +39°C° 0.1 mm 3 mps 756 mmHg 39%
    16:00 +37°C° 0.1 mm 3 mps 755 mmHg 42%
    17:00 +36°C° 0.1 mm 4 mps 755 mmHg 46%
    18:00 +35°C° 0.2 mm 3 mps 756 mmHg 51%
    19:00 +33°C° 0.2 mm 3 mps 757 mmHg 56%
    20:00 +31°C° 0.2 mm 3 mps 758 mmHg 62%
    21:00 +31°C° 0.4 mm 2 mps 758 mmHg 64%
    22:00 +30°C° 0.4 mm 2 mps 758 mmHg 65%
    23:00 +30°C° 0.4 mm 2 mps 759 mmHg 67%

    19 October, Friday

    Time Temperature Precipitation Wind Pressure Humidity
    00:00 +30°C° 0.2 mm 2 mps 758 mmHg 68%
    01:00 +29°C° 0.2 mm 1 mps 758 mmHg 69%
    02:00 +29°C° 0.2 mm 1 mps 757 mmHg 71%
    03:00 +29°C° 0.2 mm 1 mps 757 mmHg 71%
    04:00 +29°C° 0.2 mm 1 mps 757 mmHg 72%
    05:00 +28°C° 0.2 mm 1 mps 757 mmHg 73%
    06:00 +29°C° 0 mm 1 mps 758 mmHg 69%
    07:00 +30°C° 0 mm 1 mps 759 mmHg 64%
    08:00 +31°C° 0 mm 1 mps 759 mmHg 60%
    09:00 +33°C° 0 mm 1 mps 759 mmHg 53%
    10:00 +35°C° 0 mm 1 mps 759 mmHg 47%
    11:00 +38°C° 0 mm 2 mps 759 mmHg 40%
    12:00 +38°C° 0.1 mm 2 mps 758 mmHg 39%
    13:00 +39°C° 0.1 mm 2 mps 757 mmHg 37%
    14:00 +39°C° 0.1 mm 3 mps 756 mmHg 36%
    15:00 +38°C° 0.1 mm 3 mps 756 mmHg 39%
    16:00 +37°C° 0.1 mm 4 mps 756 mmHg 43%
    17:00 +36°C° 0.1 mm 4 mps 756 mmHg 46%
    18:00 +35°C° 0.1 mm 4 mps 757 mmHg 51%
    19:00 +33°C° 0.1 mm 3 mps 757 mmHg 57%
    20:00 +31°C° 0.1 mm 3 mps 758 mmHg 63%
    21:00 +31°C° 0.1 mm 3 mps 758 mmHg 64%
    22:00 +30°C° 0.1 mm 2 mps 759 mmHg 66%
    23:00 +30°C° 0.1 mm 2 mps 759 mmHg 67%

    20 October, Saturday

    Time Temperature Precipitation Wind Pressure Humidity
    00:00 +30°C° 0.1 mm 2 mps 758 mmHg 69%
    01:00 +29°C° 0.1 mm 2 mps 758 mmHg 70%
    02:00 +29°C° 0.1 mm 1 mps 758 mmHg 71%
    03:00 +29°C° 0 mm 1 mps 758 mmHg 71%
    04:00 +29°C° 0 mm 1 mps 758 mmHg 72%
    05:00 +28°C° 0 mm 1 mps 758 mmHg 73%
    06:00 +29°C° 0 mm 1 mps 758 mmHg 68%
    07:00 +30°C° 0 mm 1 mps 759 mmHg 64%
    08:00 +31°C° 0 mm 1 mps 759 mmHg 60%
    09:00 +33°C° 0 mm 1 mps 759 mmHg 53%
    10:00 +36°C° 0 mm 2 mps 759 mmHg 46%
    11:00 +38°C° 0 mm 2 mps 758 mmHg 39%
    12:00 +38°C° 0.1 mm 2 mps 758 mmHg 39%
    13:00 +38°C° 0.1 mm 3 mps 757 mmHg 39%
    14:00 +38°C° 0.1 mm 3 mps 756 mmHg 40%
    15:00 +37°C° 0.2 mm 3 mps 756 mmHg 43%
    16:00 +36°C° 0.2 mm 4 mps 756 mmHg 46%
    17:00 +35°C° 0.2 mm 4 mps 756 mmHg 50%
    18:00 +34°C° 0.5 mm 4 mps 757 mmHg 54%
    19:00 +33°C° 0.5 mm 3 mps 757 mmHg 58%
    20:00 +31°C° 0.5 mm 3 mps 758 mmHg 61%
    21:00 +31°C° 0.1 mm 3 mps 758 mmHg 62%
    22:00 +31°C° 0.1 mm 3 mps 758 mmHg 64%
    23:00 +30°C° 0.1 mm 2 mps 759 mmHg 65%
    Show more